Location: Unspecified
(0.0000°N, 0.0000°E)
Time: 15:13:57
(UTC+00:00)

COSMOS 1275 DEB - Pass Details

Date: 19 February 2026
Orbit: 902 x 1038 km, 83.0° (Epoch: 19 November)

Event Time Altitude Azimuth Distance (km) Brightness Sun altitude
Rises 04:09:41 0° 166° (SSE) 3,731 ? -30.4°
Reaches altitude 10° 04:12:29 10° 158° (SSE) 2,766 ? -29.7°
Maximum altitude 04:18:12 36° 93° (E) 1,508 ? -28.3°
Drops below altitude 10° 04:23:45 10° 29° (NNE) 2,687 ? -26.9°
Sets 04:26:24 0° 20° (NNE) 3,611 ? -26.3°
